TimeEDT,TemperatureF,Dew PointF,Humidity,Sea Level PressureIn,VisibilityMPH,Wind Direction,Wind SpeedMPH,Gust SpeedMPH,PrecipitationIn,Events,Conditions,WindDirDegrees,DateUTC
12:15 AM,68.4,67.1,96,29.68,3.0,NW,13.8,-,0.29,Rain,Light Rain,310,2013-09-22 04:15:00
12:35 AM,68.5,67.3,96,29.67,5.0,North,5.8,-,0.33,Rain,Rain,360,2013-09-22 04:35:00
12:55 AM,68.9,67.5,95,29.67,2.5,Calm,Calm,-,0.42,Rain,Heavy Rain,0,2013-09-22 04:55:00
1:15 AM,68.4,67.3,96,29.68,5.0,SSW,4.6,-,0.12,Rain,Rain,210,2013-09-22 05:15:00
1:35 AM,68.4,67.1,96,29.66,10.0,North,9.2,19.6,0.13,Rain,Light Rain,360,2013-09-22 05:35:00
1:55 AM,68.0,66.9,96,29.66,7.0,North,10.4,17.3,0.15,Rain,Heavy Rain,350,2013-09-22 05:55:00
2:15 AM,67.1,65.8,96,29.67,3.0,North,9.2,-,0.21,Rain,Heavy Rain,360,2013-09-22 06:15:00
2:35 AM,66.0,64.8,96,29.67,5.0,North,13.8,17.3,0.30,Rain,Rain,10,2013-09-22 06:35:00
2:55 AM,65.1,63.9,96,29.67,4.0,North,12.7,19.6,0.36,Rain,Rain,360,2013-09-22 06:55:00
3:15 AM,64.6,63.5,96,29.68,5.0,North,10.4,-,0.05,Rain,Rain,360,2013-09-22 07:15:00
3:35 AM,64.4,63.1,96,29.69,7.0,NNW,10.4,-,0.08,Rain,Rain,340,2013-09-22 07:35:00
3:55 AM,64.0,63.0,96,29.70,7.0,North,11.5,16.1,0.10,,Drizzle,350,2013-09-22 07:55:00
4:15 AM,63.5,62.4,96,29.70,7.0,North,12.7,19.6,N/A,Rain,Light Rain,10,2013-09-22 08:15:00
4:35 AM,63.5,62.2,96,29.71,7.0,North,8.1,-,N/A,Rain,Rain,350,2013-09-22 08:35:00
4:55 AM,63.5,62.1,95,29.71,10.0,North,11.5,17.3,0.01,,Light Drizzle,10,2013-09-22 08:55:00
5:15 AM,63.7,61.3,92,29.73,10.0,NW,5.8,-,N/A,,Overcast,320,2013-09-22 09:15:00
5:35 AM,63.7,61.7,93,29.73,10.0,NW,4.6,-,N/A,,Overcast,320,2013-09-22 09:35:00
5:55 AM,63.7,62.2,95,29.73,10.0,NNW,4.6,-,N/A,,Overcast,330,2013-09-22 09:55:00
6:15 AM,64.2,62.1,93,29.73,10.0,NW,4.6,-,N/A,,Overcast,320,2013-09-22 10:15:00
6:35 AM,64.0,61.9,93,29.74,10.0,NW,3.5,-,N/A,,Overcast,310,2013-09-22 10:35:00
6:55 AM,63.9,62.2,94,29.74,10.0,NW,4.6,-,N/A,,Overcast,310,2013-09-22 10:55:00
7:15 AM,63.9,62.4,95,29.75,10.0,NW,4.6,-,N/A,,Overcast,310,2013-09-22 11:15:00
7:35 AM,63.9,62.1,94,29.76,10.0,NW,4.6,-,N/A,,Overcast,320,2013-09-22 11:35:00
7:55 AM,64.4,61.7,91,29.77,10.0,NW,6.9,-,N/A,,Overcast,320,2013-09-22 11:55:00
8:15 AM,64.6,61.2,89,29.78,10.0,NW,5.8,-,N/A,,Overcast,320,2013-09-22 12:15:00
8:35 AM,65.5,61.3,86,29.78,10.0,NNW,8.1,-,N/A,,Mostly Cloudy,340,2013-09-22 12:35:00
8:55 AM,66.6,60.8,82,29.79,10.0,NNW,9.2,-,N/A,,Scattered Clouds,340,2013-09-22 12:55:00
9:15 AM,67.8,60.4,77,29.80,10.0,NNW,10.4,-,N/A,,Clear,340,2013-09-22 13:15:00
9:35 AM,68.9,58.8,70,29.80,10.0,North,11.5,19.6,N/A,,Clear,350,2013-09-22 13:35:00
9:55 AM,70.0,59.4,69,29.81,10.0,North,12.7,19.6,N/A,,Clear,360,2013-09-22 13:55:00
10:15 AM,70.7,58.6,66,29.81,10.0,North,11.5,19.6,N/A,,Clear,350,2013-09-22 14:15:00
10:35 AM,71.6,59.0,64,29.82,10.0,North,11.5,17.3,N/A,,Clear,350,2013-09-22 14:35:00
10:55 AM,72.3,58.8,62,29.81,10.0,North,9.2,16.1,N/A,,Clear,350,2013-09-22 14:55:00
11:15 AM,73.4,59.2,61,29.82,10.0,North,11.5,16.1,N/A,,Scattered Clouds,350,2013-09-22 15:15:00
11:35 AM,75.2,59.4,58,29.82,10.0,NNW,11.5,16.1,N/A,,Scattered Clouds,340,2013-09-22 15:35:00
11:55 AM,76.1,57.9,53,29.82,10.0,North,12.7,-,N/A,,Scattered Clouds,10,2013-09-22 15:55:00
12:15 PM,75.2,56.3,52,29.81,10.0,North,10.4,18.4,N/A,,Scattered Clouds,360,2013-09-22 16:15:00
12:35 PM,76.6,56.3,49,29.81,10.0,NNW,11.5,17.3,N/A,,Scattered Clouds,340,2013-09-22 16:35:00
12:55 PM,77.9,55.2,45,29.81,10.0,NNE,10.4,-,N/A,,Clear,20,2013-09-22 16:55:00
1:15 PM,78.3,54.7,44,29.81,10.0,North,11.5,-,N/A,,Clear,350,2013-09-22 17:15:00
1:35 PM,79.0,55.2,44,29.81,10.0,North,6.9,-,N/A,,Clear,360,2013-09-22 17:35:00
1:55 PM,79.3,54.1,42,29.80,10.0,North,10.4,17.3,N/A,,Clear,350,2013-09-22 17:55:00
2:15 PM,79.7,54.1,41,29.80,10.0,North,6.9,-,N/A,,Clear,360,2013-09-22 18:15:00
2:35 PM,79.0,53.1,40,29.79,10.0,North,9.2,-,N/A,,Clear,350,2013-09-22 18:35:00
2:55 PM,80.4,54.5,41,29.78,10.0,North,8.1,-,N/A,,Clear,360,2013-09-22 18:55:00
3:15 PM,79.9,54.5,41,29.79,10.0,NNW,12.7,17.3,N/A,,Scattered Clouds,340,2013-09-22 19:15:00
3:35 PM,79.9,53.2,40,29.79,10.0,NNW,9.2,-,N/A,,Clear,340,2013-09-22 19:35:00
3:55 PM,79.9,53.6,40,29.79,10.0,NW,10.4,16.1,N/A,,Clear,320,2013-09-22 19:55:00
4:15 PM,80.1,53.2,39,29.79,10.0,NNW,11.5,17.3,N/A,,Clear,340,2013-09-22 20:15:00
4:35 PM,79.9,52.7,39,29.79,10.0,NW,6.9,-,N/A,,Clear,320,2013-09-22 20:35:00
4:55 PM,79.9,52.5,39,29.80,10.0,NNW,6.9,-,N/A,,Clear,330,2013-09-22 20:55:00
5:15 PM,79.2,52.5,39,29.80,10.0,NNW,10.4,-,N/A,,Clear,340,2013-09-22 21:15:00
5:35 PM,78.8,51.6,39,29.80,10.0,North,6.9,-,N/A,,Clear,350,2013-09-22 21:35:00
5:55 PM,78.4,52.0,40,29.81,10.0,North,4.6,-,N/A,,Clear,10,2013-09-22 21:55:00
6:15 PM,77.5,53.1,42,29.81,10.0,North,8.1,-,N/A,,Clear,360,2013-09-22 22:15:00
6:35 PM,75.9,54.3,47,29.82,10.0,North,4.6,-,N/A,,Clear,10,2013-09-22 22:35:00
6:55 PM,73.8,54.9,52,29.82,10.0,North,4.6,-,N/A,,Clear,360,2013-09-22 22:55:00
7:15 PM,71.8,56.5,58,29.82,10.0,NNW,3.5,-,N/A,,Clear,340,2013-09-22 23:15:00
7:35 PM,69.4,57.2,65,29.82,10.0,North,3.5,-,N/A,,Clear,350,2013-09-22 23:35:00
7:55 PM,67.1,58.3,73,29.83,10.0,Calm,Calm,-,N/A,,Clear,0,2013-09-22 23:55:00
8:15 PM,67.3,58.1,72,29.84,10.0,Calm,Calm,-,N/A,,Clear,0,2013-09-23 00:15:00
8:35 PM,64.2,59.5,85,29.85,10.0,Calm,Calm,-,N/A,,Clear,0,2013-09-23 00:35:00
8:55 PM,62.8,59.4,89,29.85,10.0,Calm,Calm,-,N/A,,Clear,0,2013-09-23 00:55:00
9:15 PM,61.9,59.0,90,29.86,10.0,Calm,Calm,-,N/A,,Clear,0,2013-09-23 01:15:00
9:35 PM,61.0,58.1,90,29.87,10.0,Calm,Calm,-,N/A,,Clear,0,2013-09-23 01:35:00
9:55 PM,60.8,58.8,93,29.88,10.0,Calm,Calm,-,N/A,,Clear,0,2013-09-23 01:55:00
10:15 PM,61.0,59.0,93,29.89,10.0,Calm,Calm,-,N/A,,Clear,0,2013-09-23 02:15:00
10:35 PM,60.1,58.6,95,29.89,7.0,Calm,Calm,-,N/A,,Clear,0,2013-09-23 02:35:00
10:55 PM,59.9,58.6,96,29.90,7.0,Calm,Calm,-,N/A,,Clear,0,2013-09-23 02:55:00
11:15 PM,59.9,58.6,96,29.90,7.0,Calm,Calm,-,N/A,,Clear,0,2013-09-23 03:15:00
11:35 PM,59.4,58.3,96,29.91,7.0,Calm,Calm,-,N/A,,Clear,0,2013-09-23 03:35:00
11:55 PM,59.0,58.1,97,29.91,5.0,Calm,Calm,-,N/A,,Clear,0,2013-09-23 03:55:00